This is the latest recevied weather packets stored in our database for station/object NA9VY-8. If no packets are shown the sender has not sent any weather packets the latest 10 day(s).
| Time | Temp. | Humidity | Pressure | Rain* | Wind** | Luminosity | Snow |
|---|---|---|---|---|---|---|---|
| 1777766509 | 10.56° C | 47% | 1022.4 hPa | 0 mm | - | 16 W/m² | - |
| 1777766206 | 10.56° C | 47% | 1022.7 hPa | 0 mm | - | 17 W/m² | - |
| 1777765904 | 11.11° C | 44% | 1022.4 hPa | 0 mm | - | 21 W/m² | - |
| 1777765599 | 11.11° C | 45% | 1022.3 hPa | 0 mm | - | 22 W/m² | - |
| 1777765297 | 11.11° C | 48% | 1022.2 hPa | 0 mm | - | 28 W/m² | - |
| 1777764993 | 11.11° C | 44% | 1022.2 hPa | 0 mm | - | 27 W/m² | - |
| 1777764690 | 11.11° C | 44% | 1022.5 hPa | 0 mm | - | 28 W/m² | - |
| 1777764385 | 11.11° C | 45% | 1022.3 hPa | 0 mm | - | 28 W/m² | - |
| 1777764084 | 11.11° C | 46% | 1022.2 hPa | 0 mm | - | 31 W/m² | - |
| 1777763780 | 11.67° C | 43% | 1022.2 hPa | 0 mm | - | 33 W/m² | - |
| 1777763478 | 11.67° C | 44% | 1022.2 hPa | 0 mm | - | 35 W/m² | - |
| 1777763176 | 11.67° C | 45% | 1022.2 hPa | 0 mm | - | 73 W/m² | - |
| 1777762874 | 11.67° C | 43% | 1022.1 hPa | 0 mm | - | 87 W/m² | - |
| 1777762569 | 11.67° C | 45% | 1022.1 hPa | 0 mm | - | 62 W/m² | - |
| 1777762267 | 11.11° C | 45% | 1022 hPa | 0 mm | - | 56 W/m² | - |
| 1777761962 | 11.11° C | 44% | 1022 hPa | 0 mm | - | 43 W/m² | - |
| 1777761660 | 11.67° C | 43% | 1021.8 hPa | 0 mm | - | 40 W/m² | - |
| 1777761357 | 12.22° C | 42% | 1021.9 hPa | 0 mm | - | 56 W/m² | - |
| 1777761056 | 12.22° C | 44% | 1021.8 hPa | 0 mm | - | 75 W/m² | - |
| 1777760753 | 12.22° C | 40% | 1021.9 hPa | 0 mm | - | 146 W/m² | - |
| 1777760449 | 12.78° C | 40% | 1021.7 hPa | 0 mm | - | 163 W/m² | - |
| 1777760145 | 13.33° C | 42% | 1021.8 hPa | 0 mm | - | 295 W/m² | - |
| 1777759842 | 13.33° C | 42% | 1021.9 hPa | 0 mm | - | 325 W/m² | - |
| 1777759538 | 13.33° C | 41% | 1021.9 hPa | 0 mm | - | 340 W/m² | - |
| 1777759235 | 12.78° C | 42% | 1021.8 hPa | 0 mm | - | 334 W/m² | - |
* Rain latest hour (hover to see other rain measurements)
** Current wind speed in m/s (hover to see current wind gust speed)